C/2002 CE10 (LINEAR)                                                  

Epoch 2003 June 10.0 TT = JDT 2452800.5  

T 2003 June 22.09877 TT                                 Nakano

q   2.0467593            (2000.0)            P               Q

n   0.03205117     Peri.  126.18816     +0.85540931     +0.41854352

a   9.8153722      Node   147.44401     +0.04056497     -0.64140889

e   0.7914741      Incl.  145.45862     +0.51636169     -0.64297431

P  30.75

From 730 observations 2002 Jan. 15-2003 Oct. 18, mean residual 0".47.

Residuals in seconds of arc 

2002/                     030902 127  0.0   0.2+    030918 379  0.3-  0.1+  

020115 608  0.0   0.2+    030902 127  0.1+  0.1+    030918 379  0.5+  0.9-  

020115 608  0.4+  0.1-    030902 127  0.1-  0.2+    030918 379  0.2+  0.3-  

020115 608  0.2+  0.3+    030903 704  1.1+  0.5-    030918 360  0.1+  0.1-  

020203 644  0.3+  0.7+    030903 704  1.1+  0.6-    030918 360  0.1+  0.2-  

020203 644  0.5+  0.3+    030903 704  1.0+  0.5-    030918 127  0.1+  0.0   

020203 644  0.3+  0.1+    030903 360  0.2-  0.5-    030918 127  0.1-  0.1+  

020206 704  0.1+  0.3-    030903 360  0.6-  0.8-    030918 215  0.3+  0.1-  

020206 704  1.7+  0.1-    030903 360  0.0   0.4-    030918 215  0.2+  0.1+  

020206 704  0.9+  0.8+    030903 360  0.5-  0.7-    030918 215  0.3+  0.0   

020206 704  0.3+  0.2-    030903 A30  0.4+  0.8-    030918 215  0.2+  0.0   

020207 704  1.0+  0.2-    030903 A30  0.0   0.3+    030918 215  0.1+  0.1+  

020207 704  0.2-  0.5-    030903 A30  1.2+  0.5+    030918 215  0.1+  0.1+  

020207 704  0.1+  0.3-    030903 A30  0.0   0.4-    030918 127  0.0   0.1-  

020207 704  0.3-  0.3+    030903 A30  0.6+  0.1+    030918 127  0.2-  0.1-  

020207 704  0.5-  0.4-    030903 A30  0.3-  0.6-    030918 048  0.3+  0.3-  

020210 704  0.4-  0.9+    030903 A30  0.6+  0.3+    030918 048  0.7+  0.1+  

020210 704  0.2+  1.7+    030903 A30  1.0+  0.1+    030918 048  0.1-  0.1-  

020210 704  0.1+  0.3-    030903 A30  0.2+  0.3+    030918 048  0.1-  0.0   

020210 704  1.0+  0.8+    030903 A30  0.6+  0.3-    030918 048  0.1+  0.1-  

020211 413  0.0   0.4+    030905 204  0.2-  0.1+    030918 945 (2.9+  2.5+) 

020211 413  0.1-  0.6-    030905 204  0.7-  0.1+    030918 945  0.1+  0.1+  

020211 413  0.3+  0.0     030905 204  0.4-  0.1-    030918 945  0.0   0.1-  

020212 651  0.7+  0.3-    030905 204  0.1-  0.1+    030918 945  0.0   0.2+  

020212 651  0.4+  1.1+    030905 204  0.0   0.1+    030918 945  0.5+  0.1-  

020212 711  0.0   0.1-    030905 204  0.2-  0.1+    030918 166  0.0   0.2-  

020212 651  0.2-  0.4+    030905 557  0.1+  0.1+    030918 166  0.3+  0.0   

020212 711  0.0   0.3+    030905 557  0.0   0.0     030918 166  0.4+  0.1-  

020212 704  0.5+  0.3+    030905 557  0.0   0.1+    030918 166  0.6+  0.1-  

020212 711  0.1+  0.0     030905 557  0.1+  0.0     030918 166  0.2-  0.1+  

020212 704  0.7+  0.3+    030905 557  0.1-  0.1+    030919 A46  0.2+  0.2-  

020212 704  0.1-  0.2-    030905 H41  0.1-  0.4+    030919 A46  0.1-  0.1+  

020212 704  0.3+  0.2+    030905 H41  0.4+  0.6+    030919 A46  0.2-  0.5+  

020212 704  0.1+  1.2+    030905 H41  0.4+  0.5+    030919 A46  0.1+  0.3+  

020212 704  0.6+  0.3+    030905 379  0.8+  0.3-    030919 A46  0.0   0.2-  

020212 704  0.0   1.5+    030905 379  0.1+  0.3-    030919 A46  0.6+  0.5+  

020212 704  0.3+  1.7+    030905 379  0.4-  0.5-    030919 704  0.3+  0.3+  

020212 704  0.2-  0.3+    030905 379  0.1-  0.0     030919 H41  0.7+  0.1+  

020212 966  0.2-  0.4+    030905 379  0.2+  0.5-    030919 704  0.2+  0.2-  

020212 966  0.2+  0.1+    030905 379  0.7-  0.4-    030919 H41  0.6+  0.3+  

020213 711  0.4+  0.5-    030905 379  0.0   0.4-    030919 704  0.9+  0.6-  

020213 711  1.1-  0.6+    030905 J87  0.1+  0.3-    030919 704  0.3+  0.5-  

020213 711  0.7-  0.4+    030905 J87  1.2-  0.4-    030919 H41  0.2+  0.1+  

020213 704  0.4+  0.4+    030905 J87  0.1+  0.3-    030919 704  0.5+  0.3-  

020213 448  0.1+  1.1-    030905 048  1.5-  0.5-    030919 704  0.3+  0.3+  

020213 704  0.0   0.4-    030905 048  1.2-  0.4-    030919 704  0.6+  0.1-  

020213 448 (0.1+  2.3-)   030905 048  1.7-  0.5-    030919 704  0.3+  0.5-  

020213 448  1.0+  1.4-    030905 048  1.0-  0.5-    030919 246  0.1+  0.5+  

020213 704  0.2+  0.2-    030905 048  0.9-  0.5-    030919 246  0.3+  0.7+  

020213 704  0.3+  0.3+    030905 213  0.1-  0.3-    030919 246  0.3+  0.8+  

020215 867  0.3+  0.1+    030905 213  0.2-  0.2-    030919 246  0.0   0.4+  

020215 867  0.2+  0.1+    030905 213  0.1-  0.3-    030919 246  0.1+  0.7+  

020215 867  0.3+  0.2+    030905 213  0.3-  0.4-    030919 232  0.4+  1.0-  

020306 413  0.1+  0.2+    030906 A46  0.0   0.1+    030919 232  0.3-  0.8+  

020306 413  0.1-  0.1+    030906 A46  0.1-  0.0     030919 232  1.3+  0.0   

020306 413  0.4+  0.0     030906 A46  0.3-  0.1+    030919 939  0.2+  0.5-  

020306 413  0.5+  0.0     030906 A46  0.2-  0.0     030919 939  0.0   0.1-  

020306 413  0.1-  0.0     030906 A46  0.4-  0.1-    030919 939  0.1-  0.1+  

020402 413  0.1+  0.3+    030906 A46  0.2+  0.1-    030919 A18  0.0   0.8+  

020402 413  0.0   0.1-    030906 785 (4.4-  3.7-)   030919 A46  0.1-  0.0   

020402 413  0.0   0.1-    030906 785 (4.5-  3.5-)   030919 A46  0.2-  0.2-  

020402 413  0.3-  0.4-    030906 379  0.9+  0.3-    030919 A46  0.2-  0.5-  

021111 704  0.7+  0.9+    030906 379  0.3+  0.2-    030919 A46  0.4-  0.3-  

021111 704  1.0+  0.4+    030906 379  0.6+  0.1-    030919 A46  0.4-  0.0   

021111 704  0.5+  0.3+    030906 379  0.2+  0.1-    030919 A46  0.4-  0.2+  

021111 704  0.6+  0.4+    030906 379  0.3+  0.0     030920 704  0.4+  0.3-  

021111 704  1.2+  0.0     030906 379  0.0   0.2-    030920 704  0.4+  0.4-  

021116 704  0.2-  0.0     030906 379  1.1+  0.2-    030920 704  0.2+  0.1-  

021116 704  0.8-  0.3+    030906 379  0.3+  0.2-    030920 704  0.3+  0.3-  

021116 704  0.6-  1.0+    030906 379  0.7+  0.1-    030920 704  0.4+  0.2-  

021116 704  0.8-  0.9+    030906 379  0.5+  0.3-    030920 H41  0.6+  0.3+  

021116 704  0.9-  0.7+    030906 J93  1.1+  0.2+    030920 H41  0.6+  0.4+  

021128 360  0.1+  0.2+    030906 J93  0.8-  0.2-    030920 H41  0.3+  0.4+  

021128 360  0.1-  0.0     030906 J93  0.5+  0.3+    030920 108  0.2+  0.3+  

021128 360  0.1+  0.1+    030906 048  0.1-  0.0     030920 108  0.1-  0.3+  

021210 A46  0.3+  0.2-    030906 048  0.1-  0.2+    030920 108 (0.1-  3.4-) 

021210 A46  0.4+  0.2+    030906 048  0.0   0.1+    030920 048  0.2-  0.3+  

021210 A46  0.8+  0.2-    030906 048  0.2-  0.1-    030920 048  0.1-  0.1+  

021210 A46  0.2-  0.2-    030906 048  0.1+  0.0     030920 048  0.0   0.1-  

021210 A46  0.0   0.3+    030907 A46  0.1-  0.0     030920 048  0.2-  0.1+  

021210 A46  0.5+  0.2+    030907 A46  0.3-  0.3+    030920 048  0.1-  0.2+  

021210 A46  0.3+  0.4-    030907 A46  0.0   0.1-    030920 A18  0.2+  0.4+  

021210 A46  0.1-  0.2-    030907 A46  0.1-  0.2+    030920 A18  0.1-  0.2-  

021210 A46  0.1-  0.3-    030907 A46  0.1-  0.2+    030920 A18  0.0   0.2-  

021210 A46  0.2+  0.2+    030907 A46  0.2-  0.1+    030921 212  0.7+  0.5+  

021210 A46  0.3+  0.3+    030907 170  0.0   0.1+    030921 212  0.0   0.0   

021211 A46  0.3+  0.1+    030907 170  0.2+  0.1-    030921 212  0.6-  0.2-  

021211 A46 (2.4-  0.6-)   030907 170  0.2+  0.0     030921 704  0.0   0.0   

021211 A46  0.6+  0.0     030907 859  0.7+  0.1+    030921 704  0.2+  0.1-  

021211 A46  0.1+  0.0     030907 859  0.1-  0.4-    030921 704  0.3-  0.3+  

021211 A46  0.3-  0.1-    030907 859  0.2-  0.5-    030921 704  0.4-  0.2+  

021211 A46  0.0   0.4-    030908 785 (4.3-  4.0-)   030921 704  0.0   0.1+  

021211 A46  0.0   0.4-    030908 785 (5.5-  5.3-)   030921 H41  0.0   0.1+  

021211 A46  0.1+  0.2+    030909 379  0.3+  0.1-    030921 H41  0.2+  0.5+  

021211 A46  0.4-  0.2-    030909 379  0.6-  0.3-    030921 H41  0.1+  0.6+  

021211 A46  0.6-  0.2+    030909 379  0.3+  0.2-    030921 A34  0.2-  0.2-  

021211 A46  0.2-  0.4+    030909 379  1.0-  0.1-    030921 A34  0.1-  0.0   

021211 A46  0.1+  0.1+    030909 379  0.3-  0.3+    030921 A34  0.2-  0.0   

021211 A46  0.9+  1.0+    030909 379  1.1-  0.5+    030921 A34  0.0   0.1-  

021213 704  0.8+  1.0+    030909 461  0.4+  0.2+    030921 127  0.3+  0.1+  

021213 704  0.8+  0.3+    030909 461  0.1-  0.2+    030921 127  0.0   0.1+  

021213 704  0.7+  0.2-    030909 461  0.2-  0.3-    030921 127  0.2+  0.4+  

021213 704  0.7+  0.1-    030909 461  0.2+  0.1-    030921 127  0.1+  0.3+  

021214 704  0.6+  0.7-    030909 461  0.3+  0.0     030921 048  0.9-  0.8+  

021214 704  0.2-  0.0     030910 785  1.3-  1.2-    030921 048  0.8-  0.9+  

021214 704  0.4+  0.8-    030910 785  0.3-  1.3-    030921 048  1.3-  0.7+  

021214 704  0.7+  0.4-    030910 785  0.7+  0.2-    030921 048  1.0-  1.2+  

021214 704  0.5+  0.4-    030910 379  0.5-  0.7-    030921 048  0.6-  1.2+  

021215 704  0.6-  0.2-    030910 379  0.2-  0.3-    030921 A46  0.6-  0.4+  

021215 704  0.3-  0.1-    030910 379  0.2-  0.4+    030921 A46  0.6-  0.1+  

021215 704  0.6-  0.1-    030910 379  0.4-  0.0     030921 A46  0.2+  0.1+  

021215 704  0.2-  0.1-    030910 379  0.5-  0.2-    030921 A46  0.1+  0.8+  

021215 704  0.5-  0.5-    030910 213  0.1-  0.4-    030921 A46  0.5-  0.3+  

021215 704  0.2-  0.2+    030910 213  0.4+  0.3-    030921 A46  0.1+  0.0   

021215 704  0.8-  0.2-    030910 213  0.0   0.2-    030922 340  0.7-  0.1-  

021215 704  0.3-  0.1-    030911 379  0.1-  0.5-    030922 340  1.4+  0.4-  

021215 704  0.5-  0.1-    030911 379  0.2-  0.2-    030922 340  0.2-  0.6-  

021215 704  0.3-  0.0     030912 379  1.0-  0.3+    030922 900  0.8+  0.1+  

021226 726  0.2-  0.1+    030912 379  0.2+  0.1+    030922 900  0.2+  0.9+  

021226 726  1.1-  0.5-    030912 213  0.4+  0.1+    030922 347  0.1+  0.6-  

021226 726  0.0   0.5-    030912 213  1.0+  0.1+    030922 347  0.3-  0.0   

